Wind_Speed
18 20 21 22 22 22 22 22 21 22 23 21 20 18 18 20 17 18 18 18 19 20 20 21 22 23 24 25 26 27 28 30 31 33 35 38 40 42 44 46 48 50 51 53
19 21 22 22 23 23 23 23 23 23 24 24 22 19 20 21 20 20 20 20 21 22 22 23 24 25 26 27 28 29 30 32 33 35 37 39 42 44 46 48 50 52 53 55
20 21 23 23 24 24 24 25 24 25 25 26 25 21 21 23 21 21 22 22 23 23 24 25 26 28 29 29 30 32 33 34 36 37 40 42 44 46 48 50 52 53 55 56
21 22 23 24 25 26 25 26 27 27 27 26 27 24 18 23 22 23 23 24 25 25 26 27 28 30 31 32 33 34 36 37 39 40 42 45 47 48 50 52 54 55 57 58
22 23 24 25 26 27 27 28 28 28 28 27 27 28 20 23 24 25 25 25 26 27 28 30 31 32 33 35 36 37 38 40 42 44 45 47 49 51 52 54 56 57 58 60
23 24 25 25 26 27 28 29 30 29 29 28 27 29 24 25 25 26 27 27 28 29 31 32 33 35 36 37 39 40 41 43 45 46 48 50 51 53 55 56 57 59 60 61
22 24 25 26 27 28 28 30 31 32 30 29 29 29 25 27 27 28 29 29 30 32 33 35 36 37 39 40 42 43 44 46 48 49 51 52 54 55 57 58 59 60 61 63
23 23 25 26 27 28 29 30 32 35 34 32 30 30 25 28 29 30 31 32 33 34 36 37 39 40 42 43 44 46 47 49 50 52 53 55 56 57 58 60 61 61 62 64
25 24 25 27 28 29 30 30 32 35 37 36 33 31 26 27 29 31 32 34 35 37 39 40 42 43 45 46 47 49 50 52 53 55 56 57 58 59 60 61 62 63 64 65
28 26 25 27 29 30 31 32 33 35 39 40 37 32 28 28 30 31 34 36 38 41 42 44 46 47 48 49 51 52 53 55 56 57 58 59 60 61 62 62 63 64 65 66
30 29 27 28 29 31 31 32 34 37 39 42 43 35 29 31 32 35 37 39 42 45 47 48 49 50 51 52 53 55 56 57 58 59 60 60 61 62 63 63 64 65 65 67
31 31 29 29 31 32 33 33 35 37 40 42 45 41 31 33 36 39 42 45 47 48 49 50 51 52 53 54 55 57 57 58 60 61 62 62 63 64 64 64 65 65 66 67
33 33 33 31 32 34 34 34 35 39 41 43 45 44 37 39 41 43 46 48 50 50 50 52 53 53 54 56 57 58 59 60 61 62 63 63 64 65 65 65 65 66 66 67
35 35 35 35 35 38 38 36 37 40 42 45 45 46 42 43 45 46 47 50 51 52 52 53 54 55 56 57 58 59 60 61 62 63 63 64 65 66 65 65 66 66 66 67
38 38 37 37 37 40 41 38 38 41 42 46 47 48 47 48 49 50 51 52 53 53 54 55 56 57 58 59 59 60 61 62 62 63 64 65 66 66 66 66 65 65 65 66
39 41 42 41 39 42 42 38 39 42 43 46 47 48 48 51 52 53 54 55 56 56 57 57 58 59 60 60 61 61 62 63 64 65 66 66 67 67 67 66 65 65 65 65
41 43 45 46 44 46 43 41 42 43 43 45 48 50 51 53 54 56 57 58 58 58 59 60 60 61 62 62 63 64 65 66 66 67 67 68 68 67 66 65 65 64 64 64
45 46 49 51 50 51 47 45 46 47 47 48 51 53 55 57 57 58 60 61 60 61 62 63 64 64 64 65 66 67 66 66 67 68 68 68 67 66 65 64 63 63 63 63
46 48 50 53 55 55 50 48 50 52 51 52 55 57 59 60 60 59 60 62 63 64 65 66 66 67 66 67 68 68 68 68 68 68 68 68 66 64 63 62 61 61 61 61
46 47 49 51 54 55 52 52 53 54 55 55 57 59 61 62 64 62 61 63 64 65 66 67 67 67 68 68 69 69 68 67 67 66 65 63 61 60 59 59 59 58 58 58
46 47 48 50 53 53 52 53 55 56 57 57 59 61 62 64 65 65 65 65 65 66 66 66 67 67 67 67 66 65 64 63 62 61 59 58 57 56 56 56 55 55 54 54
45 47 47 50 52 52 52 53 55 57 58 60 61 63 64 65 65 66 66 65 65 65 64 64 64 63 62 62 61 59 58 58 57 56 56 55 55 54 54 54 53 52 52 52
45 46 48 50 50 50 51 53 55 58 60 61 62 63 64 65 64 64 64 63 62 61 61 60 59 57 56 56 56 54 54 54 53 54 54 54 53 53 54 53 52 51 51 51
46 46 48 50 50 50 52 55 56 58 60 60 61 61 61 62 61 61 61 60 58 57 56 55 53 53 52 52 52 53 53 53 53 54 54 53 53 53 53 52 50 49 49 49
48 47 49 51 51 53 53 55 56 58 58 58 58 59 59 59 58 57 56 55 54 53 53 53 53 52 52 53 53 54 54 54 54 54 54 54 54 53 52 51 50 49 47 47
47 48 52 54 54 56 55 56 57 57 57 58 57 57 56 56 55 54 54 53 53 53 53 53 53 53 53 53 54 55 55 55 55 55 55 54 54 53 52 51 50 48 47 46
Wind_Direction
275 279 283 287 289 290 291 291 291 290 292 291 289 286 282 284 286 284 284 287 289 292 295 300 302 305 307 309 311 314 317 319 321 323 324 325 326 327 327 327 326 326 326 325
278 281 284 287 289 289 291 291 290 289 290 291 289 286 282 282 283 283 284 287 289 292 294 298 300 302 304 306 309 311 314 316 319 321 322 323 324 325 326 326 326 326 325 325
282 283 285 288 289 289 291 291 291 290 289 290 289 286 282 281 283 284 285 287 290 292 295 297 299 301 303 304 306 309 311 313 315 317 319 321 322 323 323 324 325 325 325 325
285 285 286 289 289 289 290 291 291 291 290 291 291 289 283 283 285 285 286 288 289 292 294 296 298 299 301 303 305 307 309 311 313 315 317 319 320 321 322 322 323 324 324 324
287 287 288 290 290 290 291 291 291 291 291 292 291 290 292 286 286 287 287 288 289 291 293 295 296 298 300 301 303 305 307 309 311 313 315 317 318 319 321 321 321 322 323 323
290 291 291 292 292 293 293 293 292 291 292 293 292 292 296 290 288 287 288 288 290 291 293 294 295 297 298 300 302 304 306 308 310 312 313 315 316 317 319 320 320 321 321 322
293 294 295 295 295 295 296 296 295 294 293 294 294 293 299 294 291 289 288 288 289 290 292 292 293 295 297 298 300 302 304 306 308 310 312 313 315 316 317 318 319 319 320 321
295 296 297 297 297 297 298 298 298 297 297 296 296 297 302 297 293 291 290 289 289 290 290 290 292 293 294 297 299 301 303 305 307 309 311 312 314 315 316 317 318 318 319 320
297 298 299 299 299 299 299 298 298 297 297 297 297 299 301 297 294 292 291 289 288 288 288 289 290 291 293 295 297 300 302 304 306 308 309 311 312 313 315 316 316 317 318 319
297 299 300 299 299 299 300 300 300 298 299 299 299 303 308 301 297 293 290 288 287 286 287 288 290 291 293 295 297 299 301 303 305 307 308 310 311 312 313 314 315 316 317 317
297 299 301 300 299 300 299 299 299 298 299 300 300 304 311 302 296 292 290 287 286 287 288 291 292 293 295 296 297 299 301 302 304 306 307 309 310 311 312 313 314 315 316 317
297 298 300 300 299 298 298 299 299 299 299 299 300 305 309 300 294 291 288 288 289 292 293 294 294 294 295 296 297 298 300 302 303 305 307 308 309 310 311 312 313 314 315 317
296 298 299 299 298 297 298 299 300 299 299 299 299 303 306 300 295 292 291 292 293 294 294 294 294 295 295 296 297 298 299 301 302 304 306 307 308 309 311 312 313 314 315 316
294 296 298 299 299 297 298 299 300 299 299 298 299 301 301 298 294 293 293 293 294 294 294 294 295 295 296 297 297 298 299 301 302 304 305 306 307 308 310 311 313 314 315 316
294 295 295 296 297 296 297 300 301 299 299 298 300 300 301 298 296 296 295 295 295 295 295 296 296 297 298 298 299 300 300 301 303 304 305 305 306 307 309 311 312 314 315 316
292 294 295 294 295 294 296 301 299 298 298 297 297 297 297 295 296 296 296 296 296 297 297 298 298 299 299 300 300 300 301 302 303 304 305 305 306 307 309 310 312 313 314 316
291 293 294 294 294 293 296 299 298 297 296 296 296 295 293 293 294 295 295 296 297 297 298 298 299 299 300 300 300 300 301 303 303 304 305 305 306 308 309 310 311 312 313 315
293 294 294 295 296 295 299 301 299 296 296 296 295 293 292 293 294 295 295 297 298 299 299 299 300 300 300 300 300 301 302 303 303 304 304 305 306 307 308 309 311 311 313 314
291 292 293 294 295 296 299 300 298 297 297 297 295 295 295 295 295 295 297 298 299 300 300 300 300 300 300 300 300 301 302 302 303 303 304 305 306 306 307 309 309 310 311 313
292 292 292 294 295 297 301 301 299 298 298 298 297 296 296 297 297 298 298 298 298 299 299 300 300 300 300 301 301 302 303 304 304 305 306 306 307 307 308 308 308 310 311 312
296 295 296 297 296 298 302 300 299 299 299 297 296 296 296 297 298 300 300 301 301 301 301 300 300 300 300 301 302 303 304 305 305 306 307 307 308 309 309 309 309 310 311 312
296 296 297 296 296 301 300 299 298 297 297 296 296 297 298 299 300 300 301 301 301 301 301 301 301 302 302 302 303 304 304 305 306 307 308 308 309 310 311 311 310 310 310 311
295 296 296 296 298 298 297 296 296 296 297 298 298 299 300 301 301 301 301 302 302 303 302 302 303 304 305 305 305 305 306 306 307 308 308 308 309 310 311 311 312 311 311 311
296 297 296 295 296 295 295 295 296 296 298 300 301 301 301 302 302 303 303 304 304 304 304 304 305 306 307 308 308 307 307 307 307 308 308 308 308 309 310 310 311 311 311 311
298 297 294 294 295 293 294 295 295 296 297 299 300 301 302 303 303 304 304 305 305 306 306 307 307 307 308 308 308 308 307 307 307 307 307 307 307 308 308 309 311 311 311 311
297 295 292 293 293 294 296 296 297 298 298 299 300 301 302 303 303 304 304 305 305 305 306 306 307 307 308 308 308 308 308 308 308 307 307 307 307 307 307 308 309 310 310 311
Height
5859 5859 5857 5856 5854 5852 5850 5848 5847 5844 5842 5840 5839 5839 5837 5835 5834 5833 5831 5829 5827 5825 5823 5820 5817 5814 5811 5808 5804 5800 5795 5791 5786 5781 5775 5769 5763 5757 5750 5743 5736 5728 5720 5712
5857 5855 5854 5852 5850 5848 5846 5844 5842 5840 5837 5835 5835 5835 5833 5831 5830 5828 5827 5825 5823 5820 5818 5815 5812 5809 5806 5802 5798 5794 5789 5784 5779 5774 5768 5762 5756 5749 5742 5735 5727 5719 5710 5702
5852 5852 5849 5848 5846 5844 5842 5839 5838 5835 5833 5831 5830 5831 5830 5827 5825 5824 5822 5820 5817 5815 5813 5810 5807 5803 5800 5796 5792 5787 5782 5777 5772 5766 5761 5754 5748 5741 5733 5726 5718 5709 5700 5691
5848 5847 5846 5844 5841 5839 5838 5835 5833 5830 5828 5827 5825 5824 5827 5822 5820 5818 5817 5814 5812 5809 5807 5804 5801 5797 5793 5789 5785 5780 5775 5770 5764 5758 5752 5746 5739 5732 5724 5716 5708 5699 5690 5680
5844 5843 5841 5840 5837 5835 5833 5830 5828 5825 5823 5823 5821 5818 5822 5818 5816 5813 5811 5809 5806 5803 5801 5797 5794 5790 5786 5782 5778 5773 5767 5762 5756 5750 5744 5737 5730 5723 5715 5706 5698 5689 5679 5670
5841 5838 5837 5835 5833 5830 5828 5825 5823 5821 5819 5818 5816 5813 5816 5812 5810 5807 5805 5803 5800 5797 5794 5790 5787 5783 5779 5774 5770 5764 5759 5754 5747 5741 5734 5727 5720 5713 5704 5696 5687 5678 5668 5658
5837 5835 5832 5830 5828 5826 5823 5821 5817 5815 5814 5813 5811 5808 5810 5806 5803 5800 5798 5796 5792 5790 5787 5783 5779 5775 5771 5766 5761 5756 5750 5744 5738 5732 5725 5718 5710 5702 5694 5685 5676 5667 5657 5647
5833 5832 5829 5826 5823 5821 5819 5816 5813 5809 5807 5806 5805 5803 5806 5800 5796 5793 5791 5788 5785 5782 5778 5774 5770 5766 5762 5757 5752 5746 5741 5735 5728 5721 5715 5707 5699 5691 5683 5674 5665 5655 5645 5635
5827 5827 5824 5821 5818 5816 5813 5811 5808 5803 5799 5798 5798 5799 5800 5794 5790 5786 5783 5780 5776 5772 5769 5765 5761 5756 5752 5747 5742 5736 5730 5724 5718 5711 5704 5696 5688 5680 5671 5662 5653 5643 5633 5623
5822 5822 5820 5817 5814 5811 5808 5805 5802 5797 5793 5789 5790 5792 5793 5788 5783 5780 5775 5770 5766 5762 5759 5755 5751 5746 5742 5737 5731 5725 5719 5713 5707 5699 5692 5685 5677 5668 5659 5651 5641 5631 5621 5611
5816 5816 5815 5812 5808 5805 5803 5801 5796 5791 5788 5783 5779 5786 5787 5780 5775 5771 5766 5761 5756 5752 5749 5745 5741 5736 5731 5726 5720 5714 5708 5702 5695 5688 5680 5673 5665 5656 5647 5638 5629 5619 5609 5598
5810 5809 5808 5807 5803 5799 5796 5794 5790 5786 5783 5777 5771 5776 5778 5772 5765 5760 5755 5751 5746 5743 5739 5735 5730 5725 5720 5714 5708 5702 5696 5689 5683 5675 5668 5660 5652 5643 5634 5626 5616 5606 5596 5586
5804 5803 5801 5801 5799 5794 5790 5788 5784 5779 5775 5770 5765 5767 5768 5761 5754 5749 5744 5740 5736 5732 5728 5723 5718 5713 5707 5702 5696 5690 5684 5677 5670 5663 5655 5648 5639 5630 5622 5613 5603 5593 5584 5574
5797 5796 5795 5793 5789 5784 5782 5781 5778 5772 5767 5762 5758 5755 5756 5750 5744 5739 5734 5729 5724 5720 5715 5710 5706 5700 5695 5689 5683 5677 5671 5664 5657 5649 5642 5634 5625 5617 5608 5599 5590 5581 5571 5561
5789 5788 5786 5784 5781 5776 5774 5773 5770 5764 5759 5753 5750 5745 5742 5736 5731 5727 5722 5717 5713 5708 5703 5698 5693 5688 5683 5677 5671 5664 5658 5650 5643 5636 5628 5620 5611 5603 5595 5586 5577 5568 5558 5549
5781 5778 5776 5775 5773 5768 5765 5766 5761 5756 5750 5745 5740 5736 5732 5724 5719 5714 5709 5704 5700 5696 5691 5686 5681 5675 5670 5664 5657 5651 5644 5637 5629 5622 5614 5605 5597 5589 5580 5572 5563 5554 5546 5536
5773 5770 5766 5763 5762 5758 5757 5757 5751 5746 5741 5735 5729 5725 5719 5714 5709 5703 5698 5693 5688 5683 5678 5673 5668 5662 5656 5650 5643 5636 5630 5622 5614 5606 5598 5590 5582 5574 5566 5558 5550 5541 5532 5523
5764 5760 5755 5751 5749 5745 5750 5745 5739 5733 5730 5724 5717 5712 5706 5701 5697 5691 5685 5680 5675 5670 5665 5659 5653 5647 5642 5635 5627 5620 5614 5606 5599 5591 5583 5574 5566 5559 5551 5543 5536 5527 5519 5511
5755 5751 5745 5741 5735 5731 5736 5733 5726 5719 5717 5711 5703 5697 5692 5687 5683 5680 5673 5667 5661 5656 5650 5644 5638 5631 5625 5618 5610 5604 5597 5590 5582 5574 5566 5559 5551 5544 5537 5529 5521 5514 5506 5498
5745 5741 5737 5731 5724 5720 5724 5718 5710 5706 5702 5696 5689 5683 5678 5672 5667 5666 5662 5655 5649 5643 5636 5628 5622 5615 5608 5601 5593 5587 5580 5573 5566 5558 5551 5544 5536 5529 5522 5515 5508 5500 5493 5485
5733 5729 5725 5720 5712 5710 5711 5704 5697 5693 5689 5682 5676 5670 5664 5659 5653 5649 5645 5639 5633 5626 5619 5612 5605 5598 5592 5584 5577 5571 5564 5557 5550 5543 5537 5530 5523 5515 5509 5501 5494 5487 5480 5473
5722 5717 5714 5708 5702 5702 5697 5691 5685 5679 5674 5668 5662 5656 5650 5645 5640 5634 5629 5623 5616 5610 5603 5596 5589 5583 5576 5569 5562 5556 5549 5543 5536 5529 5522 5516 5509 5502 5495 5489 5482 5475 5468 5461
5711 5708 5702 5698 5695 5690 5684 5677 5672 5665 5659 5654 5648 5643 5637 5631 5626 5620 5614 5608 5601 5594 5588 5581 5574 5568 5562 5555 5548 5541 5536 5529 5523 5516 5509 5503 5496 5490 5483 5476 5469 5463 5456 5449
5700 5695 5690 5685 5683 5678 5671 5664 5658 5652 5646 5641 5635 5629 5622 5616 5611 5605 5599 5593 5586 5580 5573 5567 5561 5555 5549 5542 5535 5528 5522 5516 5510 5504 5497 5490 5484 5477 5471 5464 5458 5451 5444 5438
5688 5682 5676 5671 5669 5663 5660 5652 5646 5640 5634 5628 5622 5616 5609 5603 5597 5591 5585 5579 5573 5567 5561 5555 5549 5543 5537 5530 5523 5516 5509 5503 5497 5490 5484 5477 5471 5464 5458 5452 5446 5439 5433 5426
5676 5668 5661 5657 5654 5647 5645 5639 5632 5627 5621 5615 5609 5603 5597 5590 5585 5579 5573 5567 5561 5555 5549 5543 5536 5530 5524 5517 5510 5503 5496 5489 5483 5476 5470 5464 5457 5451 5445 5439 5434 5427 5422 5415